FENGYUN 1C DEB, 31821

Orbit data source: Space-Track

FENGYUN 1C DEB, 31821 is space debris in SSO originally from a launch on Mon, 10 May 1999 UTC launched from the Taiyaun Space Center, China (TSC). Fengyun 1C debris stems from the Chinese weather satellite Fengyun-1C, which was intentionally destroyed by a Chinese anti-satellite missile in 2007. This event dramatically increased the amount of space debris, with thousands of trackable fragments posing hazards to satellites and human spaceflight. The Fengyun 1C debris cloud has become a focal point in discussions about space sustainability and the need for international regulations to prevent the creation of new debris.

Loading next visibility...
Identifier
31821, 1999-025CHK
Orbit
SSO
Country
Flag of CNCN / PRC
Related business
Manufacturer
Unknown
Mission
Spacecraft
Bus & Motor
Unknown
Mass
Unknown
Launch date (UTC)
1999-05-10 (27 years ago)
Launch vehicle
Unknown
Launch site
Taiyaun Space Center, China (TSC)
Object type
Payload
Rocket body
Debris
Shape & HBR
Unknown shape, 0.1 m
Radar Cross Section
Small (<0.1 m²)

Expand to show TLE details & history
Last TLE update: 22 hours ago

TLE from 22 hours ago
0 FENGYUN 1C DEB
1 31821U 99025CHK 25352.42899934  .00018184  00000-0  41391-2 0  9997
2 31821  98.1571 237.1395 0219249 357.4509   2.5546 14.42164726937433
Epoch: 2025-12-18T10:17Z
TLE epoch observation values (Epoch: 2025-12-18T10:17:45.542Z)
Latitude
-0.00005°
Longitude
-4.58489°
Altitude
598.136 km
Speed
7.643 km/s
True Right ascension
15h 48m 33s
True Declination
0° 00' 00"
Sunlit
Object was in daylight at epoch
Visualization orbit readout
Latitude
Unknown
Longitude
Unknown
Altitude
Unknown
Speed
Unknown
Apparent Right ascension
Unknown
Apparent Declination
Unknown
Sunlit
N/A
Visualization observer readout
Local Sidereal Time
07:13:50
Azimuth
Unknown
Elevation
Unknown
Doppler factor
Unknown
Orbital elements
Apogee altitude
904.706 km
Perigee altitude
592.206 km
Semi-major axis
7,126.593 km
Eccentricity
0.02192
Inclination
98.1571°
RAAN
237.1395°
Arg. of periapsis
357.4509°
True anomaly
2.66973°
Mean anomaly
2.5546°
Eccentric anomaly
2.61184°
Mean motion
3.60762 °/min
Orbital period
99.79 mins
BSTAR
0.0041391
Loading maneuver chart data...
Computing Atmospheric mass density...

Documentation

Showing up to 5 results
|